User: anonymous   Login
Location: Caltech
(34.1382°N, 118.1253°W)
Time: 16:36:02
(UTC-07:00)
Language:

Cosmos 1697 Rocket - Orbit

View from above orbital plane
View from above orbital plane
View from above satellite
View from above satellite

Ground track
Ground track

The orbit data is extracted from the following two-line orbital elements,

1 16182U 85097B   17228.15948972  .00000257  00000-0  15377-3 0  9992
2 16182  71.0004 241.8863 0008530 328.1644  93.9873 14.16217079644717
Epoch (UTC): 16 August 2017 03:49:39
Eccentricity: 0.0008530
inclination: 71.0004°
perigee height: 832 km
apogee height: 844 km
right ascension of ascending node: 241.8863°
argument of perigee: 328.1644°
revolutions per day: 14.16217079
mean anomaly at epoch: 93.9873°
orbit number at epoch: 64471

The dashed part of the orbit path shows where the satellite is in the earth's shadow,  

DLR